Regional Weather Roundup
Issued by NWS

Home | Current Version | Previous Version | Graphics & Text | Print | Product List | Glossary On
Versions: 1 2 3 4 5 6 7 8 9 10 11 12 13 14 15 16 17 18 19 20 21 22 23 24 25 26 27 28 29 30 31 32 33 34 35 36 37 38 39 40 41 42 43 44 45 46 47 48 49 50
000
ASUS43 KIND 270459
RWRIN

WEATHER ROUNDUP FOR INDIANA
NATIONAL WEATHER SERVICE INDIANAPOLIS IN
100 AM EDT WED MAY 27 2015

NOTE: "FAIR" INDICATES FEW OR NO CLOUDS BELOW 12,000 FEET WITH NO
SIGNIFICANT WEATHER AND/OR OBSTRUCTIONS TO VISIBILITY.

* - STATION DOES NOT REPORT WEATHER SUCH AS PRECIPITATION OR FOG.

+ - STATION NOT QUALITY CONTROLLED BY THE NATIONAL WEATHER SERVICE.
    USE DATA WITH CAUTION...ESPECIALLY DEWPOINT AND RELATIVE
    HUMIDITY OBSERVATIONS.

INZ001>003-010>013-019-020-270600-
NORTHWEST INDIANA

CITY           SKY/WX    TMP DP  RH WIND       PRES   REMARKS
RENSSELAER +   PTCLDY    68  63  83 S13G18    29.93S

$$

LMZ046-743>745-270600-
SOUTHERN LAKE MICHIGAN

STATION/POSITION TIME  TEMP    WIND        PRES    WAVE
                       AIR SEA DIR/SP/G            HT
                 (UTC) (F)     (DEG/KT/KT) (MB)    (FT)
BURNS HARBOR     0400   68     200/ 14/ 17 1012.5R
MICHIGAN CITY    0400   68     180/ 14/ 17   N/A
5NW MICH CITY    0400   63 52  210/ 12/ 16   N/A     2

$$

INZ004-005-014>016-021>024-270600-
NORTH CENTRAL INDIANA

CITY           SKY/WX    TMP DP  RH WIND       PRES   REMARKS
GOSHEN         PTCLDY    66  60  81 SW10      29.93S
SOUTH BEND     PTCLDY    67  61  81 SW10      29.91F

$$

INZ006>009-017-018-025>027-270600-
NORTHEAST INDIANA

CITY           SKY/WX    TMP DP  RH WIND       PRES   REMARKS
ANGOLA *+      PTCLDY    68  59  73 SW8       29.94S
FORT WAYNE     MOCLDY    68  60  75 SW9       29.96S

$$

INZ028-029-035-036-043>045-051>053-270600-
WEST CENTRAL INDIANA

CITY           SKY/WX    TMP DP  RH WIND       PRES   REMARKS
CRAWFORDSVL +  CLEAR     65  55  68 S9        29.99S
GREENCASTLE +  CLEAR     66  55  68 S5        30.01S
LAFAYETTE      CLEAR     66  58  75 S7        29.95F
TERRE HAUTE    CLEAR     69  61  75 SW12      30.00S

$$

INZ030>032-037>040-046>048-054>057-064-065-270600-
CENTRAL INDIANA

CITY           SKY/WX    TMP DP  RH WIND       PRES   REMARKS
GREENWOOD *+   PTCLDY    66  57  72 SW7       30.02S
INDIANAPOLIS   MOCLDY    67  58  72 SW10      29.99S
-EAGLE CREEK   CLEAR     68  59  73 SW7       29.99S
KOKOMO *+      PTCLDY    70  57  64 SW14      29.97S
MT COMFORT *+  PTCLDY    66  55  68 S5        30.01S
SHELBYVILLE    MOCLDY    69  61  75 SW10      30.01S

$$

INZ033-034-041-042-049-050-058-059-270600-
EAST CENTRAL INDIANA

CITY           SKY/WX    TMP DP  RH WIND       PRES   REMARKS
MUNCIE         PTCLDY    69  62  78 SW7       29.98F

$$

INZ060-061-067>069-081>083-085>088-270600-
SOUTHWEST INDIANA

CITY           SKY/WX    TMP DP  RH WIND       PRES   REMARKS
EVANSVILLE     CLEAR     67  61  81 SW8       30.06S
HUNTINGBURG *+ CLEAR     66  59  77 SW8       30.06S

$$

INZ062-063-066-070>080-084-089>092-270600-
SOUTH CENTRAL AND SOUTHEAST INDIANA

CITY           SKY/WX    TMP DP  RH WIND       PRES   REMARKS
BLOOMINGTON    CLEAR     67  60  78 SW8       30.02F
MADISON *+     MOCLDY    66  63  88 S6        30.08R
SEYMOUR +      PTCLDY    68  64  88 SW7       30.04R

$$



USA.gov is the U.S. government's official web portal to all federal, state and local government web resources and services.